Marion, SC

8:31 PM EST on November 20, 2017 (GMT -0500)
Marion County

Weather History for KMAO - April, 2014

Change the Weather History Date:

Thursday, April 3, 2014

  Actual Average (KFLO) Record (KFLO)
Temperature  
Mean Temperature 70 °F -  
Max Temperature 86 °F 73 °F 90 °F (1974)
Min Temperature 55 °F 47 °F 30 °F (1992)
Cooling Degree Days 6    
Growing Degree Days 20 (Base 50)    
Moisture  
Dew Point 47 °F    
Average Humidity 46    
Maximum Humidity 67    
Minimum Humidity 17    
Precipitation  
Precipitation 0.00 in - - ()
Sea Level Pressure  
Sea Level Pressure 30.03 in    
Wind  
Wind Speed 8 mph (SSW)    
Max Wind Speed 16 mph    
Max Gust Speed 24 mph    
Visibility 10 miles    
Events      
Averages and records for this station are not official NWS values.
T = Trace of Precipitation, MM = Missing Value Source: NWS Daily Summary

Daily Weather History Graph

Daily Weather History Graph

Search for Another Location

Airport or City:

Trip Planner

Search our weather history database for the weather conditions in past years. The results will help you decide how hot, cold, wet, or windy it might be!

Date:

Astronomy

Apr. 03, 2014 Rise Set
Actual Time 7:01 AM EDT 7:39 PM EDT
Civil Twilight 6:36 AM EDT 8:05 PM EDT
Nautical Twilight 6:06 AM EDT 8:34 PM EDT
Astronomical Twilight 5:36 AM EDT 9:05 PM EDT
Moon 9:38 AM EDT (4/3) 11:48 PM EDT (4/3)
Length of Visible Light 13h 28m
Length of Day
12h 37m
Waxing Crescent, 17% of the Moon is Illuminated
Apr 3
Waxing Crescent
Apr 7
First Quarter
Apr 15
Full
Apr 22
Last Quarter
Apr 29
New

Hourly Weather History & Observations

Time (EDT) Temp. Heat Index Dew Point Humidity Pressure Visibility Wind Dir Wind Speed Gust Speed Precip Events Conditions
12:15 AM 64.4 °F - 42.8 °F 45% 30.08 in 10.0 mi South 8.1 mph - N/A   Clear
12:35 AM 64.4 °F - 42.8 °F 45% 30.08 in 10.0 mi South 6.9 mph - N/A   Clear
12:55 AM 62.6 °F - 42.8 °F 48% 30.08 in 10.0 mi South 5.8 mph - N/A   Clear
1:15 AM 62.6 °F - 42.8 °F 48% 30.08 in 10.0 mi South 5.8 mph - N/A   Clear
1:35 AM 60.8 °F - 42.8 °F 52% 30.08 in 10.0 mi South 4.6 mph - N/A   Clear
1:55 AM 59.0 °F - 42.8 °F 55% 30.07 in 10.0 mi South 4.6 mph - N/A   Clear
2:15 AM 59.0 °F - 42.8 °F 55% 30.07 in 10.0 mi South 5.8 mph - N/A   Clear
2:35 AM 59.0 °F - 42.8 °F 55% 30.06 in 10.0 mi South 4.6 mph - N/A   Clear
3:15 AM 59.0 °F - 44.6 °F 59% 30.06 in 10.0 mi South 5.8 mph - N/A   Clear
3:35 AM 57.2 °F - 44.6 °F 63% 30.05 in 10.0 mi South 4.6 mph - N/A   Clear
3:55 AM 55.4 °F - 44.6 °F 67% 30.05 in 10.0 mi South 5.8 mph - N/A   Clear
4:15 AM 57.2 °F - 44.6 °F 63% 30.05 in 10.0 mi South 5.8 mph - N/A   Clear
4:35 AM 57.2 °F - 44.6 °F 63% 30.05 in 10.0 mi South 5.8 mph - N/A   Clear
4:55 AM 57.2 °F - 44.6 °F 63% 30.05 in 10.0 mi South 6.9 mph - N/A   Clear
5:15 AM 57.2 °F - 44.6 °F 63% 30.05 in 10.0 mi South 5.8 mph - N/A   Clear
5:35 AM 55.4 °F - 44.6 °F 67% 30.05 in 10.0 mi South 4.6 mph - N/A   Clear
5:55 AM 57.2 °F - 44.6 °F 63% 30.06 in 10.0 mi SSW 4.6 mph - N/A   Clear
6:15 AM 55.4 °F - 44.6 °F 67% 30.06 in 10.0 mi SSW 5.8 mph - N/A   Clear
6:35 AM 57.2 °F - 46.4 °F 67% 30.06 in 10.0 mi SSW 5.8 mph - N/A   Clear
6:55 AM 57.2 °F - 46.4 °F 67% 30.06 in 10.0 mi SSW 6.9 mph - N/A   Clear
7:15 AM 57.2 °F - 46.4 °F 67% 30.07 in 10.0 mi SSW 5.8 mph - N/A   Clear
7:35 AM 59.0 °F - 46.4 °F 63% 30.08 in 10.0 mi SW 4.6 mph - N/A   Clear
7:55 AM 59.0 °F - 48.2 °F 67% 30.08 in 10.0 mi SSW 5.8 mph - N/A   Clear
8:15 AM 60.8 °F - 48.2 °F 63% 30.08 in 10.0 mi SW 8.1 mph - N/A   Clear
8:35 AM 62.6 °F - 50.0 °F 63% 30.09 in 10.0 mi SW 6.9 mph - N/A   Clear
8:55 AM 62.6 °F - 50.0 °F 63% 30.09 in 10.0 mi WSW 8.1 mph - N/A   Clear
9:15 AM 66.2 °F - 50.0 °F 56% 30.09 in 10.0 mi SW 5.8 mph - N/A   Clear
9:35 AM 68.0 °F - 50.0 °F 52% 30.09 in 10.0 mi WSW 10.4 mph - N/A   Clear
9:55 AM 69.8 °F - 51.8 °F 53% 30.09 in 10.0 mi SW 10.4 mph - N/A   Clear
10:15 AM 71.6 °F - 51.8 °F 50% 30.09 in 10.0 mi West 6.9 mph - N/A   Clear
10:35 AM 73.4 °F - 51.8 °F 47% 30.09 in 10.0 mi WSW 11.5 mph - N/A   Clear
10:55 AM 77.0 °F - 51.8 °F 41% 30.09 in 10.0 mi West 10.4 mph 19.6 mph N/A   Clear
11:15 AM 77.0 °F - 51.8 °F 41% 30.08 in 10.0 mi WSW 13.8 mph 17.3 mph N/A   Clear
11:35 AM 78.8 °F - 51.8 °F 39% 30.07 in 10.0 mi West 13.8 mph 17.3 mph N/A   Clear
11:55 AM 78.8 °F - 51.8 °F 39% 30.07 in 10.0 mi West 11.5 mph 20.7 mph N/A   Clear
12:15 PM 78.8 °F - 51.8 °F 39% 30.07 in 10.0 mi WSW 15.0 mph 24.2 mph N/A   Clear
12:35 PM 80.6 °F 80.3 °F 53.6 °F 39% 30.06 in 10.0 mi West 15.0 mph 19.6 mph N/A   Clear
12:55 PM 80.6 °F - 51.8 °F 37% 30.05 in 10.0 mi WNW 8.1 mph - N/A   Clear
1:15 PM 82.4 °F 81.4 °F 53.6 °F 37% 30.05 in 10.0 mi SSW 9.2 mph - N/A   Clear
1:35 PM 82.4 °F - 51.8 °F 35% 30.03 in 10.0 mi WSW 11.5 mph 16.1 mph N/A   Clear
2:15 PM 82.4 °F - 50.0 °F 32% 30.01 in 10.0 mi SW 5.8 mph 20.7 mph N/A   Clear
2:35 PM 84.2 °F - 48.2 °F 29% 30.00 in 10.0 mi SW 10.4 mph - N/A   Clear
2:55 PM 84.2 °F - 46.4 °F 27% 30.00 in 10.0 mi SW 10.4 mph 21.9 mph N/A   Clear
3:15 PM 84.2 °F - 44.6 °F 25% 29.99 in 10.0 mi SSW 13.8 mph 19.6 mph N/A   Clear
3:35 PM 84.2 °F - 37.4 °F 19% 29.98 in 10.0 mi SSW 11.5 mph 18.4 mph N/A   Clear
3:55 PM 86.0 °F - 39.2 °F 19% 29.97 in 10.0 mi SSW 15.0 mph 23.0 mph N/A   Clear
4:15 PM 84.2 °F - 37.4 °F 19% 29.97 in 10.0 mi SW 9.2 mph 23.0 mph N/A   Clear
4:35 PM 86.0 °F - 35.6 °F 17% 29.97 in 10.0 mi SW 13.8 mph 18.4 mph N/A   Clear
4:55 PM 84.2 °F - 41.0 °F 22% 29.96 in 10.0 mi SSW 13.8 mph 21.9 mph N/A   Clear
5:15 PM 82.4 °F - 41.0 °F 23% 29.96 in 10.0 mi SSW 16.1 mph 21.9 mph N/A   Clear
5:35 PM 82.4 °F - 42.8 °F 25% 29.95 in 10.0 mi SSW 12.7 mph 17.3 mph N/A   Clear
5:55 PM 82.4 °F - 44.6 °F 26% 29.94 in 10.0 mi SSW 9.2 mph 20.7 mph N/A   Clear
6:15 PM 82.4 °F - 44.6 °F 26% 29.94 in 10.0 mi SSW 8.1 mph 16.1 mph N/A   Clear
6:35 PM 82.4 °F - 44.6 °F 26% 29.94 in 10.0 mi SSW 9.2 mph 18.4 mph N/A   Clear
6:55 PM 82.4 °F - 44.6 °F 26% 29.94 in 10.0 mi SW 5.8 mph - N/A   Clear
7:15 PM 80.6 °F - 42.8 °F 26% 29.95 in 10.0 mi SSW 9.2 mph - N/A   Clear
7:35 PM 78.8 °F - 42.8 °F 28% 29.95 in 10.0 mi South 8.1 mph - N/A   Clear
7:55 PM 77.0 °F - 50.0 °F 39% 29.95 in 10.0 mi South 9.2 mph - N/A   Clear
8:15 PM 75.2 °F - 51.8 °F 44% 29.96 in 10.0 mi South 10.4 mph - N/A   Clear
8:35 PM 73.4 °F - 51.8 °F 47% 29.97 in 10.0 mi South 10.4 mph - N/A   Clear
8:55 PM 73.4 °F - 50.0 °F 44% 29.97 in 10.0 mi South 10.4 mph - N/A   Clear
9:15 PM 71.6 °F - 50.0 °F 46% 29.97 in 10.0 mi South 10.4 mph - N/A   Clear
9:35 PM 71.6 °F - 50.0 °F 46% 29.98 in 10.0 mi South 10.4 mph 19.6 mph N/A   Clear
9:55 PM 69.8 °F - 50.0 °F 49% 29.98 in 10.0 mi South 10.4 mph - N/A   Clear
10:15 PM 69.8 °F - 50.0 °F 49% 29.98 in 10.0 mi South 9.2 mph - N/A   Clear
10:35 PM 68.0 °F - 50.0 °F 52% 29.98 in 10.0 mi South 8.1 mph - N/A   Clear
10:55 PM 68.0 °F - 50.0 °F 52% 29.97 in 10.0 mi South 10.4 mph - N/A   Clear
11:55 PM 68.0 °F - 50.0 °F 52% 29.97 in 10.0 mi SSW 10.4 mph - N/A   Clear